[[{"header":{"parameterUnit":"m.s-1","parameterCategory":1,"la1":30.2991,"la2":30.254,"lo1":-89.0895,"lo2":-89.0444,"dy":0.0017,"dx":0.0017,"nx":28,"ny":28,"refTime":"2024-05-31T09:00:00:Z","depth":0,"parameterNumber":2,"parameterNumberName":"U-component_of_WINDS"},"data":[0,0,0,0,0,0,0,0,0,0,0,0,0,0,0,0,0,0,0,0,0,0,0,0,0,0,0,0,0,0,0,0,0,0,0,0,0,0,0,0,0,0,0,0,0,0,0,0,0,0,0,0,0,0,0,0,0,0,-4.759,-4.759,0,-4.7605,-4.7605,-4.7605,-4.755,-4.7549,-4.7547,-4.7545,-4.756,-4.7562,-4.7563,0,0,0,0,0,0,0,0,0,0,0,0,0,-4.7511,-4.7513,-4.7589,-4.759,-4.759,-4.7605,-4.7605,-4.7605,-4.7551,-4.7549,-4.7547,-4.7545,-4.7559,-4.7561,-4.7564,0,0,0,0,0,0,0,0,0,0,0,0,0,-4.7538,-4.7514,-4.7589,-4.7564,-4.7562,-4.7605,-4.7605,-4.7605,-4.7551,-4.7549,-4.7546,-4.7544,-4.7558,-4.7561,-4.7564,-4.7631,0,0,-4.7573,-4.7574,0,0,0,0,0,0,0,0,-4.7536,-4.7541,-4.7568,-4.7566,-4.7564,-4.7573,-4.7583,-4.7614,-4.7552,-4.7555,-4.7545,-4.7543,-4.7566,-4.7568,-4.7576,-4.7631,-4.7632,-4.7573,-4.7575,-4.7576,-4.7577,0,0,0,0,0,0,0,-4.7535,-4.754,-4.7595,-4.7568,-4.7566,-4.7552,-4.7553,-4.7588,-4.7574,-4.7555,-4.7551,-4.7553,-4.7564,-4.7574,-4.7576,-4.7632,-4.7573,-4.7575,-4.7577,-4.7578,-4.7741,-4.7744,0,0,0,0,0,0,-4.7536,-4.7539,-4.7595,-4.7596,-4.7544,-4.7555,-4.7557,-4.7573,-4.7574,-4.7571,-4.7556,-4.7551,-4.757,-4.7573,-4.7577,-4.7653,-4.7576,-4.7578,-4.758,-4.7739,-4.7742,-4.7745,0,0,0,0,0,0,-4.7535,-4.7542,-4.7594,-4.7566,-4.7572,-4.7559,-4.7578,-4.7574,-4.7583,-4.7574,-4.7571,-4.7568,-4.7568,-4.7573,-4.7617,-4.7653,-4.758,-4.7582,-4.7735,-4.774,-4.7743,-4.7808,0,0,0,0,0,0,-4.7533,-4.7542,-4.7567,-4.7567,-4.7574,-4.7636,-4.758,-4.7576,-4.7589,-4.7583,-4.7585,-4.7583,-4.7567,-4.7613,-4.762,-4.7655,-4.7585,-4.7732,-4.7737,-4.7742,-4.7803,-4.7814,-4.7823,0,0,0,0,0,-4.753,-4.7585,-4.7569,-4.7576,-4.7605,-4.7638,-4.7641,-4.7622,-4.7592,-4.7617,-4.7611,-4.7583,-4.7649,-4.7618,-4.7626,-4.7662,-4.773,-4.7736,-4.7742,-4.7798,-4.7811,-4.7823,0,0,0,0,0,0,-4.7589,-4.7584,-4.7566,-4.7623,-4.7631,-4.7628,-4.7659,-4.7637,-4.7654,-4.7647,-4.7622,-4.7623,-4.7672,-4.7672,-4.7639,-4.7726,-4.7684,-4.7691,-4.7724,-4.7737,-4.7747,-4.7745,-4.7587,0,0,0,0,0,-4.7608,-4.7635,-4.763,-4.768,-4.7685,-4.7672,-4.7685,-4.767,-4.7677,-4.768,-4.7678,-4.7685,-4.7708,-4.7723,-4.7743,-4.7803,-4.7802,-4.7832,-4.7842,-4.7851,-4.7857,-4.7887,-4.79,-4.7764,-4.7764,-4.7764,0,0,-4.7649,-4.765,-4.7668,-4.7692,-4.7697,-4.7724,-4.7675,-4.7707,-4.7727,-4.7685,-4.7726,-4.7725,-4.7732,-4.7785,-4.7808,-4.7786,-4.7895,-4.7858,-4.7865,-4.7867,-4.7895,-4.7908,-4.7919,-4.7768,-4.7767,-4.7767,0,0,-4.7736,-4.774,-4.7782,-4.7788,-4.7795,-4.7786,-4.7796,-4.7797,-4.7795,-4.7836,-4.7805,-4.7829,-4.7868,-4.7874,-4.7882,-4.7972,-4.7946,-4.798,-4.8032,-4.8062,-4.8073,-4.8082,-4.8113,-4.8124,-4.7986,-4.7987,-4.7987,0,-4.7784,-4.7826,-4.7806,-4.784,-4.785,-4.7815,-4.7856,-4.7862,-4.7876,-4.7884,-4.786,-4.7908,-4.7911,-4.7963,-4.7985,-4.7994,-4.8004,-4.7978,-4.8073,-4.8083,-4.8091,-4.812,-4.8131,-4.799,-4.799,-4.799,-4.7989,0,-4.7884,-4.7914,-4.7946,-4.7961,-4.7976,-4.8013,-4.7998,-4.8016,-4.7999,-4.7992,-4.8035,-4.8037,-4.8056,-4.8068,-4.8052,-4.8118,-4.8104,-4.8078,-4.8034,-4.8108,-4.8134,-4.8145,-4.7996,-4.7995,-4.7993,-4.7992,0,0,-4.8007,-4.8011,-4.8023,-4.8028,-4.8035,-4.8056,-4.8092,-4.8112,-4.8126,-4.8138,-4.8166,-4.82,-4.8175,-4.8185,-4.8169,-4.8196,-4.8265,-4.8166,-4.8165,-4.8182,-4.8336,-4.8355,-4.8368,-4.8249,-4.8251,-4.8253,-4.8335,0,-4.8091,-4.8152,-4.8136,-4.8196,-4.8222,-4.8189,-4.822,-4.8227,-4.8222,-4.8242,-4.8237,-4.8261,-4.8227,-4.8232,-4.8257,-4.8252,-4.8296,-4.8246,-4.8274,-4.8275,-4.8271,-4.8382,-4.8402,-4.8479,-4.8345,-4.8347,-4.8348,0,-4.8197,-4.8213,-4.8276,-4.8277,-4.8287,-4.8316,-4.8331,-4.8352,-4.8359,-4.8354,-4.8365,-4.8344,-4.8378,-4.8337,-4.8383,-4.8349,-4.836,-4.8359,-4.8362,-4.8362,-4.8315,-4.8383,-4.8503,-4.8514,-4.8365,-4.8364,-4.8362,0,-4.8278,-4.8315,-4.8357,-4.8363,-4.8366,-4.8387,-4.8389,-4.8393,-4.8406,-4.842,-4.8428,-4.8446,-4.8455,-4.847,-4.8454,-4.8425,-4.8502,-4.8459,-4.8497,-4.8497,-4.8513,-4.8512,-4.8635,-4.8524,-4.8524,-4.8524,-4.8523,0,-4.8372,-4.8412,-4.8393,-4.8419,-4.8462,-4.8443,-4.8486,-4.8484,-4.8489,-4.8513,-4.8486,-4.8509,-4.8489,-4.851,-4.8498,-4.8537,-4.8543,-4.8538,-4.8534,-4.8539,-4.8539,-4.8544,-4.8537,-4.8527,-4.8526,-4.8525,-4.8525,0,-4.8469,-4.8458,-4.8502,-4.8501,-4.8502,-4.8534,-4.8533,-4.8556,-4.855,-4.8581,-4.8587,-4.8577,-4.86,-4.8587,-4.8612,-4.8604,-4.8654,-4.8644,-4.8651,-4.8648,-4.8686,-4.8681,-4.8814,-4.883,-4.8711,-4.8712,-4.8713,0,-4.8529,-4.8559,-4.8561,-4.8576,-4.858,-4.8604,-4.8616,-4.8599,-4.8613,-4.8623,-4.8645,-4.8666,-4.8682,-4.8722,-4.8716,-4.8734,-4.8723,-4.8768,-4.8725,-4.8729,-4.8721,-4.8719,-4.8721,-4.8776,-4.8777,-4.8779,-4.8779,0,-4.8636,-4.8629,-4.8648,-4.8666,-4.8682,-4.8695,-4.8705,-4.8719,-4.8701,-4.8718,-4.8742,-4.8755,-4.878,-4.8801,-4.8817,-4.8818,-4.8795,-4.8793,-4.8803,-4.8807,-4.8809,-4.8807,-4.8672,-4.879,-4.8789,-4.8788,-4.8787,-4.8787,-4.8714,-4.8739,-4.8744,-4.8767,-4.8773,-4.8783,-4.8805,-4.8801,-4.8821,-4.884,-4.8828,-4.8856,-4.8862,-4.8881,-4.8885,-4.8906,-4.8888,-4.8902,-4.8905,-4.8908,-4.8913,-4.8808,-4.8909,-4.8909,-4.8909,-4.8909,-4.8908,0,-4.8818,-4.882,-4.8841,-4.8857,-4.8874,-4.8853,-4.8863,-4.8879,-4.8904,-4.8911,-4.8928,-4.8955,-4.8975,-4.8971,-4.899,-4.9007,-4.8997,-4.9012,-4.901,-4.901,-4.8929,-4.8918,-4.902,-4.902,-4.902,-4.902,-4.902,-4.902,-4.8874,-4.8914,-4.8908,-4.8949,-4.8951,-4.8978,-4.8986,-4.8995,-4.9001,-4.9032,-4.9049,-4.9047,-4.9049,-4.9068,-4.9085,-4.9084,-4.9091,-4.9109,-4.9104,-4.9027,-4.9016,-4.9005,-4.8995,-4.9112,-4.9112,-4.9183,-4.9183,-4.9184]},{"header":{"parameterUnit":"m.s-1","parameterCategory":1,"la1":30.2991,"la2":30.254,"lo1":-89.0895,"lo2":-89.0444,"dy":0.0017,"dx":0.0017,"nx":28,"ny":28,"refTime":"2024-05-31T09:00:00:Z","depth":0,"parameterNumber":3,"parameterNumberName":"V-component_of_WINDS"},"data":[0,0,0,0,0,0,0,0,0,0,0,0,0,0,0,0,0,0,0,0,0,0,0,0,0,0,0,0,0,0,0,0,0,0,0,0,0,0,0,0,0,0,0,0,0,0,0,0,0,0,0,0,0,0,0,0,0,0,4.2054,4.2056,0,4.2191,4.2192,4.2194,4.2183,4.2181,4.2179,4.2177,4.2313,4.2319,4.2324,0,0,0,0,0,0,0,0,0,0,0,0,0,4.1781,4.1786,4.2054,4.2056,4.2058,4.219,4.2192,4.2194,4.2183,4.2181,4.2178,4.2176,4.2312,4.2318,4.2325,0,0,0,0,0,0,0,0,0,0,0,0,0,4.1907,4.1788,4.2054,4.2068,4.2071,4.219,4.2192,4.2195,4.2184,4.2181,4.2178,4.2175,4.2309,4.2317,4.2326,4.2438,0,0,4.2351,4.2355,0,0,0,0,0,0,0,0,4.19,4.1917,4.2064,4.2067,4.2071,4.2167,4.2146,4.2276,4.2185,4.2141,4.2177,4.2173,4.2267,4.2278,4.2311,4.2445,4.245,4.2352,4.2357,4.236,4.2363,0,0,0,0,0,0,0,4.1891,4.1911,4.2108,4.2067,4.207,4.2067,4.2081,4.2171,4.2219,4.2144,4.2144,4.216,4.2268,4.2303,4.2314,4.2452,4.2352,4.2359,4.2364,4.2367,4.2685,4.2688,0,0,0,0,0,0,4.188,4.1904,4.2104,4.2112,4.1976,4.2074,4.209,4.2139,4.2218,4.2227,4.2163,4.2159,4.229,4.2304,4.2319,4.2455,4.236,4.2368,4.2373,4.2682,4.2686,4.269,0,0,0,0,0,0,4.1874,4.1898,4.2098,4.2008,4.2033,4.2082,4.2137,4.2143,4.2178,4.2232,4.2241,4.219,4.2288,4.2307,4.2409,4.246,4.2372,4.2379,4.2678,4.2683,4.2688,4.2729,0,0,0,0,0,0,4.1866,4.1895,4.1939,4.2009,4.2038,4.2187,4.214,4.2148,4.2193,4.2189,4.226,4.2268,4.2287,4.2396,4.2417,4.247,4.2386,4.2673,4.268,4.2686,4.2724,4.2735,4.2745,0,0,0,0,0,4.1856,4.1945,4.1942,4.1966,4.2094,4.219,4.2206,4.2227,4.2197,4.2241,4.2276,4.2266,4.2451,4.2407,4.243,4.2486,4.267,4.2678,4.2686,4.2719,4.2733,4.2745,0,0,0,0,0,0,4.1879,4.1954,4.1951,4.2066,4.2122,4.2188,4.2244,4.2242,4.2307,4.2301,4.2323,4.2339,4.2441,4.2474,4.2423,4.2599,4.2556,4.2569,4.2574,4.2588,4.2598,4.2588,4.2393,0,0,0,0,0,4.1898,4.197,4.2032,4.2126,4.2155,4.2195,4.2237,4.2249,4.2307,4.233,4.2373,4.2429,4.2499,4.2545,4.2614,4.2729,4.2743,4.2778,4.2789,4.2798,4.2808,4.2871,4.2887,4.2715,4.2715,4.2715,0,0,4.1936,4.1986,4.203,4.2132,4.2177,4.225,4.2215,4.2294,4.2348,4.2342,4.2441,4.2474,4.2538,4.2647,4.2697,4.2677,4.2859,4.2808,4.2814,4.282,4.2881,4.2897,4.2911,4.272,4.2719,4.2719,0,0,4.2044,4.209,4.2173,4.2219,4.2288,4.2314,4.2334,4.2401,4.2423,4.2523,4.252,4.2584,4.2706,4.2751,4.2791,4.2916,4.2909,4.2938,4.2994,4.3055,4.3069,4.3081,4.3125,4.314,4.2948,4.2948,4.2948,0,4.2083,4.2194,4.2216,4.2297,4.2341,4.234,4.2425,4.2467,4.2554,4.2585,4.2562,4.2714,4.2757,4.2877,4.2907,4.2939,4.2962,4.2929,4.3065,4.3077,4.3089,4.3131,4.3148,4.2951,4.2951,4.2951,4.295,0,4.2239,4.2316,4.2375,4.246,4.2512,4.2594,4.2627,4.2676,4.2683,4.2712,4.2813,4.2865,4.2943,4.2973,4.298,4.3093,4.3079,4.306,4.3018,4.3108,4.3148,4.3165,4.2955,4.2954,4.2954,4.2953,0,0,4.2364,4.2461,4.2482,4.252,4.2596,4.2656,4.2737,4.2815,4.2857,4.2917,4.2985,4.3088,4.3072,4.3116,4.3129,4.3182,4.3278,4.3157,4.3159,4.3177,4.3405,4.3418,4.3436,4.3274,4.3277,4.328,4.3399,0,4.2479,4.2624,4.2647,4.2775,4.2846,4.2846,4.2917,4.297,4.2999,4.3063,4.3094,4.3167,4.314,4.3167,4.322,4.3255,4.3324,4.3247,4.3337,4.334,4.332,4.3457,4.3471,4.3582,4.3415,4.3418,4.342,0,4.2632,4.2697,4.2833,4.2899,4.2929,4.2993,4.3066,4.3128,4.3188,4.3205,4.3255,4.3261,4.3345,4.33,4.3415,4.3362,4.34,4.3423,4.3428,4.3436,4.3385,4.3469,4.3617,4.3634,4.3445,4.3443,4.3441,0,4.2709,4.2831,4.2927,4.296,4.304,4.3084,4.3119,4.3177,4.3222,4.3286,4.3315,4.3388,4.3427,4.3482,4.3507,4.3472,4.3621,4.3578,4.3636,4.3636,4.3667,4.3664,4.3823,4.3693,4.3692,4.3692,4.3692,0,4.2835,4.2917,4.2963,4.3022,4.3115,4.3139,4.3229,4.3263,4.3314,4.3379,4.3384,4.3444,4.3474,4.3539,4.3559,4.3651,4.3669,4.3684,4.3689,4.3684,4.3682,4.3709,4.3701,4.3697,4.3696,4.3695,4.3694,0,4.2936,4.297,4.3075,4.3142,4.3161,4.3226,4.3283,4.334,4.3368,4.3451,4.3471,4.3516,4.3593,4.3624,4.3717,4.3731,4.3837,4.3835,4.3816,4.3817,4.3874,4.3868,4.4055,4.408,4.3934,4.3935,4.3936,0,4.3014,4.3078,4.3152,4.3196,4.3233,4.3304,4.3351,4.3377,4.3425,4.3499,4.3547,4.3624,4.3687,4.381,4.385,4.3922,4.3921,4.3982,4.3932,4.3925,4.3922,4.3917,4.3923,4.3991,4.3992,4.3993,4.3994,0,4.3148,4.3162,4.3229,4.3303,4.3358,4.3417,4.3475,4.3511,4.3546,4.3599,4.3679,4.3728,4.3824,4.39,4.3974,4.4009,4.4008,4.401,4.4027,4.4023,4.4009,4.4017,4.3841,4.4005,4.4004,4.4003,4.4003,4.4002,4.324,4.3296,4.3357,4.3432,4.3478,4.3532,4.3589,4.3625,4.3691,4.3773,4.3784,4.3868,4.3927,4.4026,4.4065,4.4131,4.4115,4.414,4.4146,4.4152,4.4155,4.3999,4.4144,4.4144,4.4144,4.4143,4.4143,0,4.3373,4.3413,4.3482,4.3562,4.3621,4.3616,4.3679,4.3728,4.3803,4.3858,4.392,4.4011,4.4085,4.4131,4.4205,4.4249,4.425,4.4268,4.4264,4.4272,4.4165,4.4143,4.4265,4.4265,4.4265,4.4265,4.4265,4.4265,4.345,4.3545,4.3566,4.3684,4.3722,4.3806,4.3843,4.3892,4.3936,4.4038,4.4099,4.4129,4.4181,4.4259,4.4326,4.4338,4.4364,4.4383,4.4393,4.4293,4.428,4.4268,4.4247,4.4389,4.4389,4.4495,4.4496,4.4496]}]]